Change the Weather History Date:

Friday, January 27, 2012

  Actual Average Record
Temperature  
Mean Temperature 73 °F 73 °F  
Max Temperature 79 °F 80 °F 85 °F (1970)
Min Temperature 67 °F 66 °F 54 °F (1969)
Degree Days  
Heating Degree Days 0 0  
Month to date heating degree days 0 0  
Since 1 July heating degree days 0 0  
Cooling Degree Days 8 8  
Month to date cooling degree days 255 218  
Year to date cooling degree days 255 218  
Growing Degree Days 24 (Base 50)    
Moisture  
Dew Point 68 °F    
Average Humidity 86    
Maximum Humidity 100    
Minimum Humidity 71    
Precipitation  
Precipitation T in 0.06 in 3.03 in (1968)
Month to date precipitation 0.56 2.06  
Year to date precipitation 0.56 2.06  
Snow  
Snow 0.00 in - - ()
Month to date snowfall 0.0  
Since 1 July snowfall 0.0  
Snow Depth 0.00 in    
Sea Level Pressure  
Sea Level Pressure 29.99 in    
Wind  
Wind Speed 4 mph (SW)    
Max Wind Speed 12 mph    
Max Gust Speed 15 mph    
Visibility 10 miles    
Events Rain    
T = Trace of Precipitation, MM = Missing Value Source: NWS Daily Summary

Daily Weather History Graph

Daily Weather History Graph

Search for Another Location

Airport or City:

Trip Planner

Search our weather history database for the weather conditions in past years. The results will help you decide how hot, cold, wet, or windy it might be!

Date:

Astronomy

Jan. 27, 2012 Rise Set
Actual Time 7:10 AM HST 6:18 PM HST
Civil Twilight 6:47 AM HST 6:41 PM HST
Nautical Twilight 6:20 AM HST 7:08 PM HST
Astronomical Twilight 5:53 AM HST 7:35 PM HST
Moon 9:53 AM HST (1/27) 10:32 PM HST (1/27)
Length of Visible Light 11h 54m
Length of Day
11h 07m
Waxing Crescent, 21% of the Moon is Illuminated
Jan 27
Waxing Crescent
Jan 30
First Quarter
Feb 7
Full
Feb 14
Last Quarter
Feb 21
New

Hourly Weather History & Observations

Time (HST) Temp. Dew Point Humidity Pressure Visibility Wind Dir Wind Speed Gust Speed Precip Events Conditions
12:53 AM 69.1 °F 66.9 °F 93% 29.95 in 10.0 mi NNW 3.5 mph - N/A   Partly Cloudy
1:53 AM 68.0 °F 66.9 °F 96% 29.94 in 10.0 mi Calm Calm - N/A   Partly Cloudy
2:53 AM 68.0 °F 66.9 °F 96% 29.93 in 10.0 mi Calm Calm - N/A   Partly Cloudy
3:53 AM 68.0 °F 68.0 °F 100% 29.93 in 10.0 mi Calm Calm - N/A   Scattered Clouds
4:53 AM 69.1 °F 68.0 °F 96% 29.93 in 10.0 mi WNW 4.6 mph - N/A   Mostly Cloudy
5:53 AM 68.0 °F 66.9 °F 96% 29.94 in 10.0 mi North 3.5 mph - N/A   Scattered Clouds
6:53 AM 69.1 °F 68.0 °F 96% 29.96 in 10.0 mi Calm Calm - N/A   Scattered Clouds
7:53 AM 69.1 °F 68.0 °F 96% 29.99 in 10.0 mi NNW 3.5 mph - N/A   Scattered Clouds
8:53 AM 75.0 °F 69.1 °F 82% 30.01 in 10.0 mi Calm Calm - N/A   Scattered Clouds
9:53 AM 75.9 °F 66.0 °F 71% 30.03 in 10.0 mi South 3.5 mph - N/A   Scattered Clouds
10:53 AM 75.9 °F 69.1 °F 79% 30.02 in 10.0 mi South 10.4 mph - N/A   Scattered Clouds
11:53 AM 77.0 °F 68.0 °F 74% 30.00 in 10.0 mi South 6.9 mph - N/A   Scattered Clouds
12:53 PM 77.0 °F 68.0 °F 74% 29.98 in 10.0 mi SSE 8.1 mph - N/A   Scattered Clouds
1:53 PM 79.0 °F 68.0 °F 69% 29.96 in 10.0 mi South 10.4 mph - N/A   Clear
2:53 PM 77.0 °F 68.0 °F 74% 29.96 in 10.0 mi South 5.8 mph - N/A   Mostly Cloudy
3:53 PM 79.0 °F 68.0 °F 69% 29.96 in 10.0 mi SW 6.9 mph - N/A   Scattered Clouds
4:53 PM 77.0 °F 69.1 °F 76% 29.99 in 10.0 mi South 4.6 mph - 0.00 in Rain Light Rain
5:53 PM 75.9 °F 68.0 °F 76% 30.01 in 10.0 mi South 3.5 mph - 0.00 in   Scattered Clouds
6:53 PM 75.9 °F 68.0 °F 76% 30.03 in 10.0 mi Calm Calm - N/A   Scattered Clouds
7:53 PM 75.0 °F 66.9 °F 76% 30.04 in 10.0 mi NNW 3.5 mph - N/A   Mostly Cloudy
8:53 PM 73.9 °F 68.0 °F 82% 30.06 in 10.0 mi Calm Calm - N/A   Scattered Clouds
9:53 PM 73.0 °F 68.0 °F 84% 30.07 in 10.0 mi NW 4.6 mph - N/A   Partly Cloudy
10:53 PM 72.0 °F 66.9 °F 84% 30.07 in 10.0 mi Calm Calm - N/A   Partly Cloudy
11:53 PM 72.0 °F 66.9 °F 84% 30.06 in 10.0 mi NNW 4.6 mph - N/A   Partly Cloudy